W0SS-13 Weather Reports


time (UTC)temp
F
wind
direction
speed
knots
gust
knots
rain 1hr
in
rain 24hr
in
rain mn
in
humidity
%
barometer
mb
20260507180715 64 218 9.6 11.3 0.00 0.00 0.00 54 1015.8
20260507180212 62 227 7.8 8.7 0.00 0.00 0.00 56 1015.6
20260507175707 62 229 7.8 13.0 0.00 0.00 0.00 58 1015.8
20260507175204 62 217 10.4 13.9 0.00 0.00 0.00 55 1015.8
20260507174702 61 247 10.4 12.2 0.00 0.00 0.00 55 1015.9
20260507174200 62 247 7.0 8.7 0.00 0.00 0.00 56 1016.0
20260507173657 63 207 7.0 11.3 0.00 0.00 0.00 57 1016.2
20260507173153 62 244 8.7 11.3 0.00 0.00 0.00 55 1016.1
20260507172650 61 239 12.2 13.9 0.00 0.00 0.00 56 1016.2
20260507172142 61 229 12.2 16.5 0.00 0.00 0.00 56 1016.2
20260507171641 61 246 13.0 16.5 0.00 0.00 0.00 56 1016.1
20260507171139 61 238 7.8 9.6 0.00 0.00 0.00 56 1016.2
20260507170636 61 254 10.4 13.0 0.00 0.00 0.00 56 1016.5
20260507170133 61 236 10.4 13.9 0.00 0.00 0.00 58 1016.5
20260507165628 61 236 8.7 8.7 0.00 0.00 0.00 56 1016.6
20260507165125 60 270 13.0 15.6 0.00 0.00 0.00 55 1016.5
20260507164621 61 255 9.6 13.0 0.00 0.00 0.00 56 1016.8
20260507164118 61 224 11.3 13.9 0.00 0.00 0.00 54 1016.8
20260507163615 61 235 9.6 12.2 0.00 0.00 0.00 56 1017.0
20260507163114 61 215 7.0 8.7 0.00 0.00 0.00 56 1016.8
20260507162608 60 227 12.2 15.6 0.00 0.00 0.00 57 1016.8
20260507162105 60 254 7.0 8.7 0.00 0.00 0.00 60 1016.9
20260507161601 60 248 8.7 11.3 0.00 0.00 0.00 57 1017.1
20260507161058 60 259 8.7 9.6 0.00 0.00 0.00 59 1016.9
20260507160555 60 216 13.0 14.8 0.00 0.00 0.00 57 1017.0
20260507160051 60 212 11.3 12.2 0.00 0.00 0.00 58 1017.0
20260507155546 60 205 9.6 11.3 0.00 0.00 0.00 58 1017.0
20260507155043 59 223 7.8 7.8 0.00 0.00 0.00 60 1017.0
20260507154540 59 254 7.0 7.8 0.00 0.00 0.00 61 1017.1
20260507154037 60 246 9.6 11.3 0.00 0.00 0.00 58 1017.2
20260507153534 60 274 10.4 12.2 0.00 0.00 0.00 59 1017.3
20260507153025 59 235 6.1 8.7 0.00 0.00 0.00 59 1017.4
20260507152520 59 236 11.3 13.9 0.00 0.00 0.00 59 1017.4
20260507152017 59 228 9.6 12.2 0.00 0.00 0.00 59 1017.5
20260507151513 59 208 5.2 7.0 0.00 0.00 0.00 62 1017.4
20260507151010 59 229 8.7 11.3 0.00 0.00 0.00 62 1017.4
20260507150507 58 248 8.7 8.7 0.00 0.00 0.00 62 1017.5
20260507150005 58 232 5.2 7.0 0.00 0.00 0.00 63 1017.5
20260507145459 59 219 9.6 12.2 0.00 0.00 0.00 61 1017.5
20260507144956 58 225 9.6 11.3 0.00 0.00 0.00 63 1017.7
20260507144453 57 253 3.5 5.2 0.00 0.00 0.00 66 1017.6
20260507143950 57 232 7.8 9.6 0.00 0.00 0.00 63 1017.4
20260507143448 57 235 9.6 9.6 0.00 0.00 0.00 64 1017.7
20260507142944 57 282 6.1 7.0 0.00 0.00 0.00 65 1017.3
20260507142440 57 246 9.6 12.2 0.00 0.00 0.00 63 1017.6
20260507141937 57 242 7.8 9.6 0.00 0.00 0.00 64 1017.4
20260507141433 56 222 2.6 2.6 0.00 0.00 0.00 66 1017.6
20260507140930 55 234 4.3 5.2 0.00 0.00 0.00 67 1017.6
20260507140427 56 248 7.8 11.3 0.00 0.00 0.00 66 1017.9
20260507135925 55 234 5.2 6.1 0.00 0.00 0.00 66 1018.0
20260507135421 55 227 7.0 7.8 0.00 0.00 0.00 66 1017.8
20260507134919 54 242 3.5 3.5 0.00 0.00 0.00 68 1017.7
20260507134415 54 210 5.2 6.1 0.00 0.00 0.00 68 1017.8
20260507133911 54 230 3.5 3.5 0.00 0.00 0.00 69 1017.9
20260507133406 54 235 4.3 6.1 0.00 0.00 0.00 69 1017.9
20260507132900 53 236 3.5 3.5 0.00 0.00 0.00 69 1017.6
20260507132356 53 257 5.2 6.1 0.00 0.00 0.00 70 1017.9
20260507131853 52 195 2.6 3.5 0.00 0.00 0.00 71 1018.0
20260507131349 52 231 4.3 5.2 0.00 0.00 0.00 72 1017.9
20260507130846 52 231 2.6 3.5 0.00 0.00 0.00 73 1017.9
20260507130343 51 202 5.2 7.0 0.00 0.00 0.00 73 1017.8
20260507125842 51 210 3.5 5.2 0.00 0.00 0.00 73 1017.9
20260507125339 50 216 2.6 2.6 0.00 0.00 0.00 75 1018.3
20260507124837 50 231 3.5 3.5 0.00 0.00 0.00 75 1018.0
20260507124333 49 229 2.6 2.6 0.00 0.00 0.00 75 1018.0
20260507123832 49 221 1.7 1.7 0.00 0.00 0.00 75 1018.1
20260507123328 48 223 2.6 2.6 0.00 0.00 0.00 76 1018.1
20260507122824 47 216 0.9 1.7 0.00 0.00 0.00 77 1017.8
20260507122320 46 214 2.6 2.6 0.00 0.00 0.00 78 1018.1
20260507121816 45 195 2.6 2.6 0.00 0.00 0.00 79 1018.0
20260507121312 45 176 2.6 2.6 0.00 0.00 0.00 79 1017.8
20260507120809 44 188 1.7 2.6 0.00 0.00 0.00 80 1018.0
20260507120305 44 199 2.6 3.5 0.00 0.00 0.00 81 1017.9
20260507115801 43 192 1.7 1.7 0.00 0.00 0.00 81 1018.2
20260507115257 43 188 1.7 1.7 0.00 0.00 0.00 80 1017.8
20260507114753 44 188 1.7 1.7 0.00 0.00 0.00 79 1017.7
20260507114250 44 187 2.6 2.6 0.00 0.00 0.00 79 1018.0
20260507113748 44 198 1.7 1.7 0.00 0.00 0.00 79 1018.0
20260507113244 44 194 1.7 1.7 0.00 0.00 0.00 78 1017.9
20260507112742 44 193 1.7 1.7 0.00 0.00 0.00 78 1017.9
20260507112239 44 197 1.7 1.7 0.00 0.00 0.00 78 1018.0
20260507111737 44 197 1.7 2.6 0.00 0.00 0.00 77 1018.0
20260507111233 44 208 0.9 0.9 0.00 0.00 0.00 77 1017.7
20260507110729 44 196 1.7 1.7 0.00 0.00 0.00 77 1017.7
20260507110226 44 197 1.7 1.7 0.00 0.00 0.00 76 1017.6
20260507105723 44 198 1.7 1.7 0.00 0.00 0.00 76 1017.8
20260507105219 44 202 0.9 0.9 0.00 0.00 0.00 76 1017.8
20260507104716 44 203 1.7 2.6 0.00 0.00 0.00 76 1017.6
20260507104213 44 199 1.7 1.7 0.00 0.00 0.00 75 1017.5
20260507103709 44 182 1.7 1.7 0.00 0.00 0.00 75 1017.6
20260507103205 44 187 1.7 1.7 0.00 0.00 0.00 74 1017.8
20260507102702 44 192 1.7 1.7 0.00 0.00 0.00 74 1017.9
20260507102158 44 194 2.6 2.6 0.00 0.00 0.00 74 1017.6
20260507101654 44 214 1.7 1.7 0.00 0.00 0.00 74 1017.9
20260507101150 44 185 1.7 1.7 0.00 0.00 0.00 74 1017.8
20260507100647 44 200 0.9 0.9 0.00 0.00 0.00 72 1017.8
20260507100146 45 199 1.7 1.7 0.00 0.00 0.00 71 1017.8
20260507095643 45 192 1.7 1.7 0.00 0.00 0.00 71 1017.7
20260507095140 45 194 1.7 1.7 0.00 0.00 0.00 71 1017.9
20260507094636 45 206 1.7 1.7 0.00 0.00 0.00 70 1017.9
20260507094133 45 139 1.7 1.7 0.00 0.00 0.00 70 1017.9
20260507093630 45 202 1.7 1.7 0.00 0.00 0.00 69 1018.0
20260507093129 46 201 0.9 1.7 0.00 0.00 0.00 68 1018.0
20260507092625 46 207 1.7 1.7 0.00 0.00 0.00 68 1018.1
20260507092122 46 204 1.7 1.7 0.00 0.00 0.00 67 1018.0
20260507091619 46 213 2.6 2.6 0.00 0.00 0.00 67 1017.9
20260507091114 46 205 2.6 2.6 0.00 0.00 0.00 67 1018.1
20260507090610 46 208 1.7 1.7 0.00 0.00 0.00 67 1018.1
20260507090108 46 207 1.7 1.7 0.00 0.00 0.00 66 1018.2
20260507085604 46 204 1.7 1.7 0.00 0.00 0.00 66 1018.1
20260507085101 46 213 1.7 1.7 0.00 0.00 0.00 66 1018.0
20260507084558 46 204 1.7 1.7 0.00 0.00 0.00 66 1018.3
20260507084055 46 205 1.7 1.7 0.00 0.00 0.00 66 1018.0
20260507083551 46 202 1.7 1.7 0.00 0.00 0.00 66 1018.2
20260507083048 46 211 0.9 1.7 0.00 0.00 0.00 66 1018.3
20260507082544 46 212 0.9 0.9 0.00 0.00 0.00 66 1018.3
20260507082041 46 213 1.7 1.7 0.00 0.00 0.00 66 1018.1
20260507081537 46 207 1.7 1.7 0.00 0.00 0.00 66 1018.2
20260507081034 46 204 1.7 1.7 0.00 0.00 0.00 66 1018.3
20260507080530 46 204 1.7 1.7 0.00 0.00 0.00 66 1018.1
20260507080027 46 214 2.6 2.6 0.00 0.00 0.00 66 1018.2
20260507075522 46 204 1.7 1.7 0.00 0.00 0.00 66 1018.0
20260507075019 46 203 1.7 1.7 0.00 0.00 0.00 66 1018.1
20260507074515 46 207 1.7 1.7 0.00 0.00 0.00 67 1018.0
20260507074014 46 204 0.9 1.7 0.00 0.00 0.00 67 1018.1
20260507073510 47 204 0.9 1.7 0.00 0.00 0.00 67 1018.2
20260507073006 47 203 1.7 1.7 0.00 0.00 0.00 66 1018.5
20260507072504 47 206 0.9 0.9 0.00 0.00 0.00 67 1018.5
20260507072001 47 206 0.9 1.7 0.00 0.00 0.00 67 1018.6
20260507071458 47 207 0.9 1.7 0.00 0.00 0.00 67 1018.2
20260507070954 47 206 1.7 1.7 0.00 0.00 0.00 67 1018.5
20260507070452 47 205 1.7 1.7 0.00 0.00 0.00 68 1018.7
20260507065949 47 206 1.7 1.7 0.00 0.00 0.00 68 1018.7
20260507065445 47 195 1.7 1.7 0.00 0.00 0.00 68 1018.7
20260507064942 47 196 1.7 1.7 0.00 0.00 0.00 68 1018.5
20260507064441 47 198 0.9 0.9 0.00 0.00 0.00 68 1018.7
20260507063938 47 196 0.9 0.9 0.00 0.00 0.00 67 1018.9
20260507063435 48 200 0.9 0.9 0.00 0.00 0.00 67 1018.9
20260507062932 48 196 0.9 0.9 0.00 0.00 0.00 67 1019.1
20260507062429 48 204 1.7 1.7 0.00 0.00 0.00 66 1019.0
20260507061926 48 205 0.9 1.7 0.00 0.00 0.00 65 1019.0
20260507061424 48 208 0.9 0.9 0.00 0.00 0.00 65 1019.0
20260507060923 48 211 1.7 1.7 0.00 0.00 0.00 65 1019.0
20260507060419 47 203 0.0 0.0 0.00 0.00 0.00 66 1019.0
20260507055916 48 203 0.0 0.0 0.00 0.00 0.00 67 1019.0
20260507055410 48 168 0.0 0.0 0.00 0.00 0.00 68 1018.8
20260507054902 48 190 0.9 0.9 0.00 0.00 0.00 66 1018.9
20260507054358 48 187 1.7 1.7 0.00 0.00 0.00 66 1018.8
20260507053856 47 195 0.0 0.9 0.00 0.00 0.00 68 1018.8
20260507053353 47 196 0.9 0.9 0.00 0.00 0.00 68 1019.0
20260507052852 47 192 0.0 0.9 0.00 0.00 0.00 67 1019.0
20260507052349 47 192 0.9 1.7 0.00 0.00 0.00 67 1019.0
20260507051846 48 187 0.0 0.9 0.00 0.00 0.00 66 1019.0
20260507051344 47 182 1.7 1.7 0.00 0.00 0.00 66 1019.0
20260507050840 47 198 0.9 0.9 0.00 0.00 0.00 66 1019.0
20260507050337 47 189 0.9 1.7 0.00 0.00 0.00 66 1019.0
20260507045833 47 183 1.7 1.7 0.00 0.01 0.01 66 1018.8
20260507045330 47 187 1.7 1.7 0.00 0.01 0.01 66 1018.8
20260507044827 46 196 0.9 0.9 0.00 0.01 0.01 68 1018.9
20260507044324 46 197 0.0 0.9 0.00 0.01 0.01 68 1019.1
20260507043819 47 196 0.0 0.9 0.00 0.01 0.01 67 1019.1
20260507043316 47 188 1.7 2.6 0.00 0.01 0.01 68 1019.2
20260507042812 47 185 0.9 0.9 0.00 0.01 0.01 68 1019.0
20260507042308 47 197 0.9 0.9 0.00 0.01 0.01 69 1018.9
20260507041805 48 197 0.0 0.0 0.00 0.01 0.01 67 1018.9
20260507041301 48 183 0.9 1.7 0.00 0.01 0.01 66 1018.9
20260507040753 48 178 1.7 1.7 0.00 0.01 0.01 66 1018.8
20260507040249 47 177 1.7 1.7 0.00 0.01 0.01 67 1019.0
20260507035746 47 180 1.7 1.7 0.00 0.01 0.01 69 1019.3
20260507035241 47 194 0.9 1.7 0.00 0.01 0.01 69 1019.3
20260507034739 48 179 0.9 1.7 0.00 0.01 0.01 68 1019.3
20260507034235 47 185 0.0 0.0 0.00 0.01 0.01 69 1019.3
20260507033734 48 185 0.0 0.9 0.00 0.01 0.01 69 1019.1
20260507033231 48 189 0.0 0.9 0.00 0.01 0.01 68 1019.5
20260507032728 48 180 0.0 0.0 0.00 0.01 0.01 66 1019.2
20260507032224 48 164 0.0 0.0 0.00 0.01 0.01 72 1019.2
20260507031721 49 162 0.0 0.0 0.00 0.01 0.01 70 1019.0
20260507031218 49 161 0.9 1.7 0.00 0.01 0.01 67 1019.1
20260507030715 49 169 0.9 0.9 0.00 0.01 0.01 66 1018.9
20260507030212 48 175 0.0 0.0 0.00 0.01 0.01 67 1019.1
20260507025709 47 197 0.0 0.0 0.00 0.01 0.01 67 1019.0
20260507025206 45 289 0.0 0.0 0.00 0.01 0.01 74 1019.1
20260507024704 45 289 0.0 0.0 0.00 0.01 0.01 76 1019.1
20260507024201 46 289 0.0 0.0 0.00 0.01 0.01 75 1019.0
20260507023656 46 289 0.0 0.0 0.00 0.01 0.01 73 1019.1
20260507023154 46 289 0.0 0.0 0.00 0.01 0.01 72 1018.9
20260507022651 46 289 0.0 0.0 0.00 0.01 0.01 70 1018.7
20260507022147 47 289 0.0 0.0 0.00 0.01 0.01 71 1018.9
20260507021643 46 289 0.0 0.0 0.00 0.01 0.01 61 1018.7
20260507021138 47 289 0.0 0.0 0.00 0.01 0.01 69 1018.7
20260507020637 48 289 0.0 0.0 0.00 0.01 0.01 68 1018.6
20260507020133 48 289 0.0 0.0 0.00 0.01 0.01 61 1018.5
20260507015632 48 289 0.0 0.0 0.00 0.01 0.01 63 1018.2
20260507015129 49 289 0.0 0.0 0.00 0.01 0.01 62 1018.5
20260507014625 50 289 0.0 0.0 0.00 0.01 0.01 55 1018.6
20260507014121 50 289 0.0 0.0 0.00 0.01 0.01 60 1018.6
20260507013618 51 289 0.0 0.0 0.00 0.01 0.01 63 1018.2
20260507013115 52 290 0.0 0.0 0.00 0.01 0.01 63 1018.6
20260507012612 53 290 0.0 0.0 0.00 0.01 0.01 63 1018.6
20260507012108 54 290 0.0 0.0 0.00 0.01 0.01 55 1018.6
20260507011606 55 290 0.0 0.0 0.00 0.01 0.01 49 1018.3
20260507011102 56 316 0.0 0.0 0.00 0.01 0.01 47 1018.1
20260507010557 56 307 0.9 0.9 0.00 0.01 0.01 43 1018.2
20260507010053 57 325 0.9 1.7 0.00 0.01 0.01 43 1018.1
20260507005551 57 332 1.7 1.7 0.00 0.01 0.01 43 1018.1
20260507005046 58 348 1.7 1.7 0.00 0.01 0.01 42 1018.2
20260507004544 58 347 0.9 1.7 0.00 0.01 0.01 42 1018.1
20260507004041 58 350 1.7 2.6 0.00 0.01 0.01 40 1018.0
20260507003537 58 324 3.5 3.5 0.00 0.01 0.01 40 1018.1
20260507003032 59 318 2.6 2.6 0.00 0.01 0.01 38 1018.1
20260507002529 59 306 2.6 2.6 0.00 0.01 0.01 40 1018.1
20260507002025 59 331 1.7 1.7 0.00 0.01 0.01 40 1018.1
20260507001521 59 335 3.5 3.5 0.00 0.01 0.01 39 1018.1
20260507001019 59 324 4.3 5.2 0.00 0.01 0.01 38 1017.9
20260507000515 59 337 5.2 7.0 0.00 0.01 0.01 39 1017.8
20260507000011 59 324 0.9 0.9 0.00 0.01 0.01 39 1018.3
20260506235508 59 270 3.5 3.5 0.00 0.01 0.01 37 1018.2
20260506235004 59 325 2.6 2.6 0.00 0.01 0.01 37 1018.0
20260506234502 59 325 2.6 2.6 0.00 0.01 0.01 36 1018.1
20260506233959 59 320 4.3 5.2 0.00 0.01 0.01 38 1018.2
20260506233455 59 339 3.5 3.5 0.00 0.01 0.01 39 1018.1
20260506232951 59 319 7.0 7.8 0.00 0.01 0.01 35 1018.3
20260506232447 59 314 5.2 6.1 0.00 0.01 0.01 38 1018.3
20260506231938 59 356 7.0 7.8 0.00 0.01 0.01 36 1018.1
20260506231436 60 342 6.1 7.8 0.00 0.01 0.01 38 1018.0
20260506230933 60 330 4.3 5.2 0.00 0.01 0.01 39 1018.1
20260506230429 60 5 5.2 6.1 0.00 0.01 0.01 38 1018.1
20260506225925 59 352 3.5 3.5 0.00 0.01 0.01 39 1018.1
20260506225423 60 332 3.5 3.5 0.00 0.01 0.01 38 1018.1
20260506224920 59 307 7.0 8.7 0.00 0.01 0.01 38 1017.9
20260506224417 60 304 5.2 7.0 0.00 0.01 0.01 37 1017.9
20260506223913 60 326 4.3 6.1 0.00 0.01 0.01 42 1018.1
20260506223409 59 350 1.7 1.7 0.00 0.01 0.01 38 1018.2
20260506222906 59 355 6.1 7.8 0.00 0.01 0.01 39 1018.0
20260506222403 60 34 9.6 12.2 0.00 0.01 0.01 37 1018.2
20260506221900 60 328 5.2 7.0 0.00 0.01 0.01 41 1018.1
20260506221357 60 325 5.2 6.1 0.00 0.01 0.01 36 1018.3
20260506220854 60 312 4.3 6.1 0.00 0.01 0.01 39 1018.2
20260506220350 60 4 3.5 5.2 0.00 0.01 0.01 44 1018.3
20260506215847 59 343 2.6 3.5 0.00 0.01 0.01 40 1018.3
20260506215342 59 14 6.1 7.0 0.00 0.01 0.01 36 1018.6
20260506214839 59 327 3.5 3.5 0.00 0.01 0.01 39 1018.2
20260506214335 59 304 2.6 2.6 0.00 0.01 0.01 40 1018.5
20260506213834 59 5 5.2 6.1 0.00 0.01 0.01 39 1018.6
20260506213331 60 26 5.2 6.1 0.00 0.01 0.01 39 1018.6
20260506212828 59 327 5.2 6.1 0.00 0.01 0.01 40 1018.6
20260506212324 59 75 5.2 7.0 0.00 0.01 0.01 36 1018.7
20260506211819 59 16 10.4 12.2 0.00 0.01 0.01 36 1018.9
20260506211315 59 14 4.3 6.1 0.00 0.01 0.01 39 1018.9
20260506210813 59 303 5.2 6.1 0.00 0.01 0.01 39 1018.8
20260506210309 59 356 9.6 11.3 0.00 0.01 0.01 40 1018.7
20260506205806 58 318 3.5 3.5 0.00 0.01 0.01 40 1019.0
20260506205305 59 328 5.2 6.1 0.00 0.01 0.01 39 1019.1
20260506204759 59 323 7.8 7.8 0.00 0.01 0.01 39 1019.2
20260506204257 58 285 2.6 2.6 0.00 0.01 0.01 44 1019.0
20260506203754 58 0 7.0 7.8 0.00 0.01 0.01 38 1019.4
20260506203251 59 349 6.1 8.7 0.00 0.01 0.01 43 1019.2
20260506202748 58 324 6.1 7.8 0.00 0.01 0.01 45 1019.2
20260506202245 58 312 6.1 7.8 0.00 0.01 0.01 43 1019.2
20260506201742 58 332 8.7 12.2 0.00 0.01 0.01 42 1019.4
20260506201238 58 34 6.1 7.0 0.00 0.01 0.01 40 1019.7
20260506200736 58 314 2.6 2.6 0.00 0.01 0.01 41 1019.5
20260506200232 58 333 7.8 7.8 0.00 0.01 0.01 42 1019.5
20260506195728 58 288 3.5 3.5 0.00 0.01 0.01 43 1019.5
20260506195225 58 325 9.6 11.3 0.00 0.01 0.01 42 1019.6
20260506194722 57 34 4.3 5.2 0.00 0.01 0.01 41 1019.6
20260506194219 57 10 2.6 2.6 0.00 0.01 0.01 38 1019.5
20260506193717 57 339 5.2 7.0 0.00 0.01 0.01 35 1019.7
20260506193213 57 329 8.7 11.3 0.00 0.01 0.01 38 1019.7
20260506192710 57 330 7.0 9.6 0.00 0.01 0.01 39 1019.7
20260506192206 58 307 7.0 7.0 0.00 0.01 0.01 40 1019.7
20260506191658 58 61 1.7 2.6 0.00 0.01 0.01 37 1019.6
20260506191153 57 336 1.7 2.6 0.00 0.01 0.01 46 1019.7
20260506190651 57 320 5.2 6.1 0.00 0.01 0.01 37 1020.0
20260506190147 57 357 3.5 3.5 0.00 0.01 0.01 43 1019.8
20260506185645 56 270 5.2 6.1 0.00 0.01 0.01 42 1019.8
20260506185140 56 348 6.1 7.8 0.00 0.01 0.01 44 1020.1
20260506184639 56 293 2.6 2.6 0.00 0.01 0.01 42 1020.2
20260506184136 56 7 0.9 1.7 0.00 0.01 0.01 39 1020.1
20260506183632 55 305 4.3 6.1 0.00 0.01 0.01 43 1020.1
20260506183128 56 5 3.5 5.2 0.00 0.01 0.01 39 1020.0
20260506182626 56 354 7.8 9.6 0.00 0.01 0.01 46 1020.3
20260506182122 56 23 4.3 6.1 0.00 0.01 0.01 43 1020.3
20260506181620 56 355 5.2 6.1 0.00 0.01 0.01 44 1020.0
20260506181117 56 317 4.3 7.0 0.00 0.01 0.01 46 1020.2